N3KJE Weather Reports


time (UTC)temp
F
wind
direction
speed
knots
gust
knots
rain 1hr
in
rain 24hr
in
rain mn
in
humidity
%
barometer
mb
20260504140505 66 181 1.7 4.3 0.00 0.00 0.00 55 1014.1
20260504130504 63 148 1.7 4.3 0.00 0.00 0.00 60 1014.9
20260504110505 53 136 0.9 2.6 0.00 0.00 0.00 79 1015.6
20260504081004 52 174 1.7 2.6 0.00 0.00 0.00 77 1015.9
20260504080504 52 172 1.7 4.3 0.00 0.00 0.00 77 1015.8
20260504050505 50 175 1.7 2.6 0.00 0.00 0.00 62 1015.8
20260504045004 49 147 0.9 2.6 0.00 0.00 0.00 64 1015.7
20260504044504 49 109 0.9 1.7 0.00 0.00 0.00 64 1015.7
20260504044005 49 109 0.9 1.7 0.00 0.00 0.00 64 1015.7
20260504043004 48 144 0.0 1.7 0.00 0.00 0.00 65 1015.7
20260504042504 48 132 0.0 1.7 0.00 0.00 0.00 66 1015.6
20260504042004 48 138 0.0 1.7 0.00 0.00 0.00 66 1015.6
20260504041504 48 138 0.0 1.7 0.00 0.00 0.00 66 1015.5
20260504041005 48 138 0.0 1.7 0.00 0.00 0.00 66 1015.5
20260504040004 47 138 0.0 1.7 0.00 0.00 0.00 68 1015.3
20260504035505 47 151 0.0 0.9 0.00 0.00 0.00 68 1015.3
20260504035005 47 155 0.0 0.9 0.00 0.00 0.00 67 1015.3
20260504034504 47 155 0.9 1.7 0.00 0.00 0.00 68 1015.2
20260504033004 47 194 0.0 0.9 0.00 0.00 0.00 68 1015.1
20260504032505 47 194 0.0 0.9 0.00 0.00 0.00 68 1015.2
20260504031004 47 275 0.0 0.9 0.00 0.00 0.00 67 1015.1
20260504030005 47 275 0.0 0.9 0.00 0.00 0.00 67 1015.1
20260504025505 48 275 0.0 0.9 0.00 0.00 0.00 66 1015.1
20260504025005 48 275 0.0 0.9 0.00 0.00 0.00 67 1015.1
20260504024504 47 275 0.0 1.7 0.00 0.00 0.00 67 1015.1
20260504024004 48 275 0.0 0.9 0.00 0.00 0.00 67 1015.1
20260504023504 47 275 0.9 1.7 0.00 0.00 0.00 68 1015.1
20260504020504 47 275 0.0 0.0 0.00 0.00 0.00 68 1015.1
20260504020005 47 275 0.0 0.0 0.00 0.00 0.00 68 1014.9
20260504015505 47 275 0.0 0.0 0.00 0.00 0.00 70 1014.9
20260504015005 47 275 0.0 0.0 0.00 0.00 0.00 67 1014.9
20260504014504 47 275 0.0 0.0 0.00 0.00 0.00 67 1014.9
20260504005504 50 275 0.0 0.9 0.00 0.00 0.00 62 1014.5
20260504001504 54 275 0.0 0.9 0.00 0.00 0.00 50 1013.9
20260503234504 57 275 0.9 1.7 0.00 0.00 0.00 42 1013.7
20260503233504 58 275 0.9 2.6 0.00 0.00 0.00 40 1013.7
20260503233005 58 286 1.7 2.6 0.00 0.00 0.00 40 1013.7
20260503232004 58 298 1.7 2.6 0.00 0.00 0.00 40 1013.7
20260503230505 59 248 1.7 2.6 0.00 0.00 0.00 39 1013.6
20260503230005 59 253 0.9 5.2 0.00 0.00 0.00 39 1013.5
20260503225004 60 303 1.7 7.0 0.00 0.00 0.00 37 1013.5
20260503224005 60 357 2.6 7.0 0.00 0.00 0.00 37 1013.4
20260503223504 60 297 2.6 10.4 0.00 0.00 0.00 37 1013.4
20260503223004 60 300 3.5 6.1 0.00 0.00 0.00 37 1013.4
20260503222504 60 296 5.2 10.4 0.00 0.00 0.00 36 1013.4
20260503222004 60 274 4.3 7.0 0.00 0.00 0.00 36 1013.4
20260503221504 60 325 2.6 10.4 0.00 0.00 0.00 37 1013.4
20260503220504 61 270 4.3 7.0 0.00 0.00 0.00 36 1013.4
20260503220004 61 293 2.6 7.8 0.00 0.00 0.00 37 1013.4
20260503214504 61 332 3.5 12.2 0.00 0.00 0.00 37 1013.4
20260503213505 61 321 5.2 12.2 0.00 0.00 0.00 35 1013.3
20260503210505 61 302 4.3 11.3 0.00 0.00 0.00 35 1013.2
20260503210005 61 289 5.2 10.4 0.00 0.00 0.00 36 1013.1
20260503205504 61 306 3.5 7.8 0.00 0.00 0.00 36 1013.1
20260503204505 61 302 5.2 10.4 0.00 0.00 0.00 36 1013.2
20260503203505 61 256 4.3 11.3 0.00 0.00 0.00 34 1013.1
20260503203004 62 287 4.3 10.4 0.00 0.00 0.00 35 1013.2
20260503202504 61 358 2.6 7.0 0.00 0.00 0.00 36 1013.2
20260503201005 61 269 5.2 11.3 0.00 0.00 0.00 35 1013.5
20260503200505 61 230 2.6 11.3 0.00 0.00 0.00 40 1013.4
20260503200005 61 282 4.3 10.4 0.00 0.00 0.00 36 1013.4
20260503195504 61 4 3.5 10.4 0.00 0.00 0.00 37 1013.4
20260503195005 61 337 3.5 10.4 0.00 0.00 0.00 40 1013.4
20260503194004 61 333 2.6 6.1 0.00 0.00 0.00 37 1013.3
20260503193504 61 339 4.3 10.4 0.00 0.00 0.00 37 1013.5
20260503191504 61 289 5.2 14.8 0.00 0.00 0.00 37 1013.5
20260503191005 60 277 5.2 11.3 0.00 0.00 0.00 38 1013.4
20260503190004 60 324 5.2 8.7 0.00 0.00 0.00 37 1013.7
20260503185504 61 316 4.3 11.3 0.00 0.00 0.00 36 1013.6
20260503185005 60 241 4.3 11.3 0.00 0.00 0.00 38 1013.5
20260503183504 60 287 2.6 8.7 0.00 0.00 0.00 40 1013.8
20260503183005 60 276 3.5 7.0 0.00 0.00 0.00 38 1013.9
20260503182505 59 307 4.3 10.4 0.00 0.00 0.00 38 1014.0
20260503182005 60 339 4.3 11.3 0.00 0.00 0.00 39 1013.8
20260503181005 60 318 2.6 8.7 0.00 0.00 0.00 41 1014.0
20260503180504 59 324 5.2 10.4 0.00 0.00 0.00 40 1014.0
20260503180004 59 351 5.2 8.7 0.00 0.00 0.00 41 1013.9
20260503175504 59 287 5.2 10.4 0.00 0.00 0.00 40 1013.9
20260503175004 60 294 2.6 7.0 0.00 0.00 0.00 44 1014.0
20260503174504 59 323 4.3 8.7 0.00 0.00 0.00 43 1014.0
20260503171504 58 330 4.3 10.4 0.00 0.00 0.00 43 1014.1
20260503171005 58 329 4.3 10.4 0.00 0.00 0.00 43 1014.1
20260503150505 52 339 2.6 8.7 0.00 0.00 0.00 54 1014.4